Location: Eferding
(48.3167°N, 14.0167°E)
Time: 05:36:02
(UTC+00:00)

Cosmos 1538 Rocket - Pass Details

Date: 12 November 2019
Orbit: 751 x 793 km, 74.0° (Epoch: 13 December)

Event Time Altitude Azimuth Distance (km) Brightness Sun altitude
Rises 17:43:30 0° 210° (SSW) 3,219 7.7 -22.3°
Reaches altitude 10° 17:45:52 10° 213° (SSW) 2,304 6.9 -22.7°
Maximum altitude 17:51:04 66° 295° (WNW) 849 4.3 -23.6°
Enters shadow 17:54:52 19° 15° (NNE) 1,786 5.7 -24.2°
